When you browse on this site, cookies collect data to enhance your experience and personalize the content and advertising you see.
Visit our Privacy Policy to learn more. By continuing to use the site, you agree to this use of cookies and data.
  • In Österreich
  • Länderverzeichnis
  • Für 7 Tage
  • Wassertemperatur
  • Wetterkarte
  • News
  • Widgets
  • user-avatar
    Anmelden

    Stündliche Wetter Tepeapulco

    Heute, 23 August, Freitag

    Zeit Temperatur Niederschläge Wind Luftdruck Luftfeuchtigkeit
    00:00 +13°C° 0 mm 1 m/S 562 mmHg 94%
    01:00 +12°C° 0 mm 0 m/S 561 mmHg 94%
    02:00 +11°C° 0 mm 0 m/S 561 mmHg 94%
    03:00 +11°C° 0 mm 0 m/S 561 mmHg 94%
    04:00 +11°C° 0 mm 0 m/S 561 mmHg 94%
    05:00 +10°C° 0 mm 0 m/S 561 mmHg 94%
    06:00 +12°C° 0 mm 0 m/S 562 mmHg 88%
    07:00 +14°C° 0 mm 0 m/S 563 mmHg 82%
    08:00 +16°C° 0 mm 0 m/S 564 mmHg 75%
    09:00 +19°C° 1 mm 1 m/S 564 mmHg 71%
    10:00 +21°C° 1 mm 1 m/S 565 mmHg 66%
    11:00 +21°C° 1 mm 2 m/S 565 mmHg 62%
    12:00 +20°C° 2.3 mm 2 m/S 564 mmHg 67%
    13:00 +19°C° 2.3 mm 2 m/S 564 mmHg 71%
    14:00 +18°C° 2.3 mm 2 m/S 563 mmHg 76%
    15:00 +17°C° 1.9 mm 2 m/S 562 mmHg 81%
    16:00 +16°C° 1.9 mm 2 m/S 561 mmHg 85%
    17:00 +15°C° 1.9 mm 2 m/S 561 mmHg 90%
    18:00 +15°C° 1 mm 2 m/S 561 mmHg 91%
    19:00 +14°C° 1 mm 2 m/S 562 mmHg 92%
    20:00 +13°C° 1 mm 2 m/S 562 mmHg 94%
    21:00 +13°C° 0.1 mm 2 m/S 562 mmHg 93%
    22:00 +12°C° 0.1 mm 1 m/S 561 mmHg 92%
    23:00 +12°C° 0.1 mm 1 m/S 561 mmHg 91%

    Morgen, 24 August, Samstag

    Zeit Temperatur Niederschläge Wind Luftdruck Luftfeuchtigkeit
    00:00 +12°C° 0 mm 1 m/S 561 mmHg 90%
    01:00 +12°C° 0 mm 1 m/S 561 mmHg 89%
    02:00 +12°C° 0 mm 1 m/S 561 mmHg 88%
    03:00 +13°C° 0 mm 1 m/S 561 mmHg 88%
    04:00 +13°C° 0 mm 1 m/S 561 mmHg 87%
    05:00 +13°C° 0 mm 1 m/S 562 mmHg 86%
    06:00 +15°C° 0 mm 1 m/S 563 mmHg 81%
    07:00 +16°C° 0 mm 1 m/S 564 mmHg 77%
    08:00 +16°C° 0 mm 0 m/S 565 mmHg 72%
    09:00 +20°C° 0.4 mm 1 m/S 565 mmHg 66%
    10:00 +21°C° 0.4 mm 1 m/S 565 mmHg 60%
    11:00 +23°C° 0.4 mm 1 m/S 566 mmHg 55%
    12:00 +23°C° 1.2 mm 1 m/S 565 mmHg 56%
    13:00 +22°C° 1.2 mm 1 m/S 565 mmHg 57%
    14:00 +22°C° 1.2 mm 1 m/S 564 mmHg 58%
    15:00 +21°C° 1.4 mm 1 m/S 564 mmHg 64%
    16:00 +20°C° 1.4 mm 2 m/S 563 mmHg 69%
    17:00 +19°C° 1.4 mm 2 m/S 563 mmHg 75%
    18:00 +17°C° 1 mm 2 m/S 563 mmHg 78%
    19:00 +16°C° 1 mm 1 m/S 563 mmHg 82%
    20:00 +15°C° 1 mm 1 m/S 563 mmHg 85%
    21:00 +14°C° 0.1 mm 1 m/S 562 mmHg 85%
    22:00 +14°C° 0.1 mm 1 m/S 562 mmHg 86%
    23:00 +14°C° 0.1 mm 1 m/S 562 mmHg 86%

    übermorgen, 25 August, Sonntag

    Zeit Temperatur Niederschläge Wind Luftdruck Luftfeuchtigkeit
    00:00 +13°C° 0 mm 1 m/S 561 mmHg 86%
    01:00 +13°C° 0 mm 1 m/S 561 mmHg 87%
    02:00 +12°C° 0 mm 1 m/S 560 mmHg 87%
    03:00 +12°C° 0 mm 1 m/S 560 mmHg 87%
    04:00 +12°C° 0 mm 1 m/S 560 mmHg 87%
    05:00 +12°C° 0 mm 1 m/S 560 mmHg 86%
    06:00 +14°C° 0 mm 1 m/S 562 mmHg 80%
    07:00 +16°C° 0 mm 1 m/S 563 mmHg 74%
    08:00 +19°C° 0 mm 1 m/S 564 mmHg 67%
    09:00 +20°C° 0.2 mm 1 m/S 565 mmHg 63%
    10:00 +22°C° 0.2 mm 1 m/S 565 mmHg 58%
    11:00 +23°C° 0.2 mm 1 m/S 565 mmHg 54%
    12:00 +23°C° 2.1 mm 1 m/S 565 mmHg 57%
    13:00 +23°C° 2.1 mm 2 m/S 564 mmHg 60%
    14:00 +21°C° 2.1 mm 2 m/S 563 mmHg 63%
    15:00 +20°C° 1.8 mm 2 m/S 563 mmHg 69%
    16:00 +19°C° 1.8 mm 2 m/S 562 mmHg 75%
    17:00 +17°C° 1.8 mm 2 m/S 561 mmHg 82%
    18:00 +18°C° 0.2 mm 1 m/S 561 mmHg 82%
    19:00 +16°C° 0.2 mm 1 m/S 562 mmHg 82%
    20:00 +15°C° 0.2 mm 1 m/S 562 mmHg 83%
    21:00 +15°C° 0 mm 1 m/S 561 mmHg 83%
    22:00 +14°C° 0 mm 1 m/S 561 mmHg 84%
    23:00 +13°C° 0 mm 1 m/S 561 mmHg 85%

    26 August, Montag

    Zeit Temperatur Niederschläge Wind Luftdruck Luftfeuchtigkeit
    00:00 +13°C° 0.2 mm 1 m/S 561 mmHg 85%
    01:00 +13°C° 0.2 mm 1 m/S 560 mmHg 86%
    02:00 +13°C° 0.2 mm 1 m/S 560 mmHg 86%
    03:00 +13°C° 0 mm 1 m/S 560 mmHg 86%
    04:00 +13°C° 0 mm 1 m/S 560 mmHg 87%
    05:00 +12°C° 0 mm 0 m/S 560 mmHg 87%
    06:00 +14°C° 0 mm 0 m/S 561 mmHg 81%
    07:00 +15°C° 0 mm 0 m/S 562 mmHg 75%
    08:00 +17°C° 0 mm 0 m/S 563 mmHg 70%
    09:00 +20°C° 0.3 mm 1 m/S 564 mmHg 64%
    10:00 +22°C° 0.3 mm 1 m/S 564 mmHg 58%
    11:00 +23°C° 0.3 mm 1 m/S 564 mmHg 52%
    12:00 +23°C° 0.5 mm 1 m/S 564 mmHg 52%
    13:00 +23°C° 0.5 mm 2 m/S 563 mmHg 52%
    14:00 +23°C° 0.5 mm 2 m/S 563 mmHg 52%
    15:00 +21°C° 0.4 mm 2 m/S 562 mmHg 59%
    16:00 +20°C° 0.4 mm 3 m/S 562 mmHg 66%
    17:00 +19°C° 0.4 mm 3 m/S 561 mmHg 74%
    18:00 +17°C° 0.5 mm 2 m/S 561 mmHg 79%
    19:00 +15°C° 0.5 mm 2 m/S 561 mmHg 85%
    20:00 +13°C° 0.5 mm 1 m/S 560 mmHg 90%
    21:00 +13°C° 0 mm 1 m/S 560 mmHg 89%
    22:00 +13°C° 0 mm 1 m/S 560 mmHg 88%
    23:00 +11°C° 0 mm 0 m/S 560 mmHg 87%

    27 August, Dienstag

    Zeit Temperatur Niederschläge Wind Luftdruck Luftfeuchtigkeit
    00:00 +11°C° 0 mm 0 m/S 560 mmHg 86%
    01:00 +11°C° 0 mm 0 m/S 560 mmHg 86%
    02:00 +11°C° 0 mm 0 m/S 560 mmHg 85%
    03:00 +11°C° 0 mm 0 m/S 560 mmHg 85%
    04:00 +11°C° 0 mm 0 m/S 560 mmHg 85%
    05:00 +11°C° 0 mm 0 m/S 560 mmHg 84%
    06:00 +12°C° 0 mm 0 m/S 561 mmHg 79%
    07:00 +14°C° 0 mm 0 m/S 562 mmHg 73%
    08:00 +16°C° 0 mm 0 m/S 563 mmHg 67%
    09:00 +19°C° 0.2 mm 1 m/S 564 mmHg 62%
    10:00 +21°C° 0.2 mm 1 m/S 564 mmHg 58%
    11:00 +22°C° 0.2 mm 1 m/S 565 mmHg 53%
    12:00 +21°C° 0.9 mm 2 m/S 564 mmHg 56%
    13:00 +21°C° 0.9 mm 2 m/S 563 mmHg 58%
    14:00 +21°C° 0.9 mm 3 m/S 563 mmHg 61%
    15:00 +20°C° 1.4 mm 3 m/S 563 mmHg 67%
    16:00 +19°C° 1.4 mm 3 m/S 562 mmHg 73%
    17:00 +18°C° 1.4 mm 3 m/S 562 mmHg 80%
    18:00 +16°C° 0.6 mm 2 m/S 562 mmHg 82%
    19:00 +15°C° 0.6 mm 2 m/S 562 mmHg 84%
    20:00 +14°C° 0.6 mm 2 m/S 562 mmHg 86%
    21:00 +14°C° 0.3 mm 2 m/S 562 mmHg 86%
    22:00 +13°C° 0.3 mm 2 m/S 562 mmHg 86%
    23:00 +13°C° 0.3 mm 1 m/S 562 mmHg 86%

    28 August, Mittwoch

    Zeit Temperatur Niederschläge Wind Luftdruck Luftfeuchtigkeit
    00:00 +13°C° 0 mm 1 m/S 562 mmHg 87%
    01:00 +12°C° 0 mm 1 m/S 561 mmHg 88%
    02:00 +12°C° 0 mm 1 m/S 561 mmHg 88%
    03:00 +12°C° 0 mm 1 m/S 561 mmHg 88%
    04:00 +12°C° 0 mm 1 m/S 561 mmHg 88%
    05:00 +12°C° 0 mm 1 m/S 562 mmHg 88%
    06:00 +14°C° 0 mm 1 m/S 563 mmHg 82%
    07:00 +14°C° 0 mm 0 m/S 564 mmHg 75%
    08:00 +16°C° 0 mm 0 m/S 565 mmHg 69%
    09:00 +19°C° 0 mm 1 m/S 565 mmHg 62%
    10:00 +20°C° 0 mm 2 m/S 566 mmHg 55%
    11:00 +23°C° 0 mm 2 m/S 566 mmHg 47%
    12:00 +21°C° 0.4 mm 3 m/S 565 mmHg 51%
    13:00 +21°C° 0.4 mm 4 m/S 565 mmHg 56%
    14:00 +21°C° 0.4 mm 4 m/S 564 mmHg 60%
    15:00 +20°C° 0.8 mm 4 m/S 564 mmHg 66%
    16:00 +18°C° 0.8 mm 4 m/S 563 mmHg 72%
    17:00 +17°C° 0.8 mm 3 m/S 563 mmHg 79%
    18:00 +16°C° 0.1 mm 3 m/S 562 mmHg 83%
    19:00 +14°C° 0.1 mm 2 m/S 562 mmHg 88%
    20:00 +13°C° 0.1 mm 2 m/S 562 mmHg 92%
    21:00 +13°C° 0 mm 2 m/S 562 mmHg 92%
    22:00 +12°C° 0 mm 1 m/S 562 mmHg 93%
    23:00 +12°C° 0 mm 1 m/S 562 mmHg 93%
    Mehr zeigen